Regional Weather Roundup
Issued by NWS

Home | Current Version | Previous Version | Text Only | Print | Product List | Glossary On
Versions: 1 2 3 4 5 6 7 8 9 10 11 12 13 14 15 16 17 18 19 20 21 22 23 24 25 26 27 28 29 30 31 32 33 34 35 36 37 38 39 40 41 42 43 44 45 46 47 48 49 50
000
ASUS44 KOUN 241310
RWROK

WEATHER ROUNDUP FOR OKLAHOMA
NATIONAL WEATHER SERVICE NORMAN OK
800 AM CDT FRI OCT 24 2014

NOTE: "FAIR" INDICATES FEW OR NO CLOUDS BELOW 12,000 FEET WITH NO
      SIGNIFICANT WEATHER AND/OR OBSTRUCTIONS TO VISIBILITY.

OKZ001>007-009>012-014-015-017-241400-
NORTHWEST OKLAHOMA AND THE PANHANDLE

CITY           SKY/WX    TMP DP  RH WIND       PRES   REMARKS
GAGE           FOG       54  54 100 CALM      30.07R VSB 1/4
ENID/WOODRING  PTCLDY    55  55 100 SE5       30.07R FOG
$$

OKZ016-021>023-033>039-044-045-241400-
SOUTHWEST OKLAHOMA

CITY           SKY/WX    TMP DP  RH WIND       PRES   REMARKS
LAWTON/REGL    CLEAR     56  54  93 E3        30.10R
LAWTON/FT SILL CLEAR     57  56  97 S3        30.08S
FREDERICK      CLEAR     58  56  93 E6        30.06R FOG
CLINTON        CLEAR     59  56  89 S10       30.09S FOG
HOBART         CLEAR     59  57  93 S9        30.08S
ALTUS AFB      CLEAR     56  56 100 SE5       30.08S FOG
$$

OKZ018>020-024>031-241400-
CENTRAL OKLAHOMA

CITY           SKY/WX    TMP DP  RH WIND       PRES   REMARKS
OKLAHOMA CITY  PTCLDY    57  54  89 S9        30.10R
OKC/WILEY POST CLEAR     58  55  90 S12       30.09R
OKC/TINKER AFB CLEAR     57  55  92 S9        30.10R
STILLWATER     CLEAR     57  54  89 S8        30.09R
GUTHRIE        CLEAR     58  55  90 S8        30.08S
$$

OKZ008-013-054>072-241400-
NORTHEAST OKLAHOMA

CITY           SKY/WX    TMP DP  RH WIND       PRES   REMARKS
TULSA          MOCLDY    59  54  83 S7        30.10R
TULSA/JONES    CLEAR     58  53  84 S6        30.11S
PONCA CITY     CLEAR     60  55  83 S7        30.08R
BARTLESVILLE   FOG       51  51 100 CALM      30.11S VSB 3/4
MUSKOGEE       CLEAR     53  52  96 S5        30.14S FOG
$$

OKZ032-040>043-046>053-073>077-241400-
SOUTH CENTRAL/SOUTHEAST OKLAHOMA

CITY           SKY/WX    TMP DP  RH WIND       PRES   REMARKS
ARDMORE/DWNTWN CLEAR     55  54  94 CALM      30.12S
MCALESTER      CLEAR     55  50  83 S3        30.14S
$$




USA.gov is the U.S. government's official web portal to all federal, state and local government web resources and services.